sat.trackr.live / text

‹ back to catalog

STARLINK-36337

NORAD 68716 · 2026-081T

PAYLOAD ACTIVE UNKNOWN

§ Identity

Operator
Country
US
Launch date
2026-04-14
Launch site
AFETR
Launch vehicle
Mass (kg)
RCS (m²)

Purposes: comms

External: N2YO · Heavens-Above · Gunter

§ Orbital elements

Epoch: 2026-05-24T23:57:50.230656Z

Period
92.94 min
Inclination
53.1597°
Eccentricity
0.0000991
Mean motion
15.49328958 rev/d
Perigee alt
418.0 km
Apogee alt
419.4 km
Semi-major
6,796.8 km
B*
1.2404e-3
RAAN
40.5433°
Arg perigee
90.7001°
Mean anomaly
269.4121°
Rev number
641

§ Raw data

STARLINK-363371 68716U 26081T   26144.99849804  .00069199  00000+0  12404-2 0  99992 68716  53.1597  40.5433 0000991  90.7001 269.4121 15.49328958  6415

JSON: /api/v1/satellites/68716 · /tle

For live sub-satellite position, see the globe view (requires WebGL).

§ Visibility from observer

Set your observer location to see the next 7 days of passes ≥ 10°. The values pass through the URL so the page stays shareable.

No JS? Fill the form by hand. The geolocation button needs JavaScript.